Location: Montr�al
(45.5000°N, 73.5830°W)
Time: 17:54:30
(UTC-04:00)

ISS - All Passes

Search period start: 05 May 2016 00:00
Search period end: 15 May 2016 00:00
Orbit: 402 x 405 km, 51.6° (Epoch: 05 May)

Date Brightness Start Highest point End Pass type
(mag) Time Alt. Az. Time Alt. Az. Time Alt. Az.
05 May - 07:10:53 10° SW 07:14:06 60° SSE 07:17:20 10° ENE daylight
05 May - 08:47:40 10° W 08:50:43 34° NNW 08:53:45 10° NE daylight
05 May - 10:24:52 10° NW 10:27:45 27° N 10:30:37 10° ENE daylight
05 May - 12:01:21 10° WNW 12:04:37 64° NNE 12:07:51 10° ESE daylight
05 May - 13:38:15 10° W 13:40:50 21° SW 13:43:23 10° S daylight
06 May - 06:18:41 10° SSW 06:21:40 33° SE 06:24:39 10° ENE daylight
06 May - 07:54:54 10° W 07:58:04 46° NNW 08:01:15 10° NE daylight
06 May - 09:32:11 10° WNW 09:35:02 26° N 09:37:52 10° ENE daylight
06 May - 11:08:51 10° NW 11:12:01 43° NNE 11:15:09 10° E daylight
06 May - 12:45:24 10° WNW 12:48:27 37° SW 12:51:29 10° SSE daylight
07 May - 05:26:52 10° S 05:29:18 19° SE 05:31:43 10° E daylight
07 May - 07:02:12 10° WSW 07:05:27 69° NNW 07:08:43 10° ENE daylight
07 May - 08:39:25 10° WNW 08:42:18 28° N 08:45:11 10° NE daylight
07 May - 10:16:20 10° NW 10:19:20 33° NNE 10:22:21 10° E daylight
07 May - 11:52:44 10° WNW 11:55:59 66° SSW 11:59:13 10° SE daylight
08 May - 04:36:06 10° SSE 04:36:59 11° SE 04:37:52 10° ESE visible
08 May - 06:09:39 10° SW 06:12:54 72° SSE 06:16:10 10° ENE daylight
08 May - 07:46:35 10° W 07:49:35 32° NNW 07:52:35 10° NE daylight
08 May - 09:23:43 10° NW 09:26:38 28° N 09:29:32 10° ENE daylight
08 May - 11:00:10 10° WNW 11:03:26 74° NNE 11:06:42 10° ESE daylight
08 May - 12:37:17 10° W 12:39:34 18° SW 12:41:52 10° S daylight
09 May - 05:17:20 10° SW 05:20:25 40° SE 05:23:31 10° ENE daylight
09 May - 06:53:46 10° W 06:56:53 41° NNW 07:00:01 10° NE daylight
09 May - 08:31:02 10° WNW 08:33:53 26° N 08:36:43 10° ENE daylight
09 May - 10:07:38 10° NW 10:10:50 48° NNE 10:14:00 10° E daylight
09 May - 11:44:15 10° WNW 11:47:11 31° SW 11:50:07 10° SSE daylight
10 May - 04:25:20 10° SSW 04:27:59 23° SE 04:30:39 10° E visible
10 May - 06:01:00 10° WSW 06:04:14 60° NNW 06:07:29 10° ENE daylight
10 May - 07:38:15 10° WNW 07:41:07 27° N 07:43:58 10° NE daylight
10 May - 09:15:05 10° NW 09:18:08 36° NNE 09:21:12 10° E daylight
10 May - 10:51:31 10° WNW 10:54:44 55° SSW 10:57:55 10° SE daylight
11 May - 03:34:00 10° SSE 03:35:38 13° SE 03:37:15 10° ESE visible
11 May - 05:08:21 10° WSW 05:11:38 85° SSE 05:14:54 10° ENE daylight
11 May - 06:45:24 10° WNW 06:48:22 30° N 06:51:19 10° NE daylight
11 May - 08:22:28 10° NW 08:25:24 29° N 08:28:20 10° ENE daylight
11 May - 09:58:53 10° WNW 10:02:10 86° NNE 10:05:26 10° ESE daylight
11 May - 11:36:17 10° W 11:38:13 15° SW 11:40:09 10° S daylight
12 May - 04:15:55 10° SW 04:19:05 48° SE 04:22:15 10° ENE visible
12 May - 05:52:31 10° W 05:55:37 38° NNW 05:58:42 10° NE daylight
12 May - 07:29:46 10° WNW 07:32:38 27° N 07:35:29 10° ENE daylight
12 May - 09:06:19 10° WNW 09:09:32 55° NNE 09:12:45 10° ESE daylight
12 May - 10:43:03 10° W 10:45:50 26° SW 10:48:36 10° SSE daylight
13 May - 03:23:46 10° SSW 03:26:36 27° SE 03:29:27 10° E visible
13 May - 04:59:42 10° W 05:02:55 53° NNW 05:06:08 10° NE daylight
13 May - 06:36:59 10° WNW 06:39:50 27° N 06:42:41 10° ENE daylight
13 May - 08:13:44 10° NW 08:16:50 39° NNE 08:19:56 10° E daylight
13 May - 09:50:12 10° WNW 09:53:21 45° SW 09:56:29 10° SE daylight
14 May - 02:32:07 10° S 02:34:11 16° SE 02:36:15 10° E visible
14 May - 04:06:59 10° WSW 04:10:15 82° NNW 04:13:32 10° ENE visible
14 May - 05:44:07 10° WNW 05:47:02 29° N 05:49:58 10° NE daylight
14 May - 07:21:06 10° NW 07:24:05 31° NNE 07:27:03 10° ENE daylight
14 May - 08:57:31 10° WNW 09:00:47 81° SSW 09:04:03 10° ESE daylight
14 May - 10:35:19 10° WSW 10:36:46 12° SW 10:38:12 10° SSW daylight
